• în Republica Moldova
  • Lista ţărilor
  • Pe 7 zile
  • Temperatura apei
  • Hartă satelitară
  • Meteo pe hartă
  • Widget-uri
  • user-avatar
    Intrare

    Meteo pe oră la Barcelona

    Astăzi, 23 Ianuarie, Miercuri

    Timp Temperatura Precipitaţii Vânt Presiune Umiditate
    00:00 +27°C° 0.1 mm 5 m/s 761 mmHg 79%
    01:00 +26°C° 0.1 mm 5 m/s 761 mmHg 80%
    02:00 +26°C° 0.1 mm 4 m/s 761 mmHg 81%
    03:00 +26°C° 0.1 mm 4 m/s 761 mmHg 80%
    04:00 +26°C° 0.1 mm 3 m/s 761 mmHg 80%
    05:00 +26°C° 0.1 mm 3 m/s 761 mmHg 79%
    06:00 +27°C° 0 mm 3 m/s 761 mmHg 77%
    07:00 +27°C° 0 mm 3 m/s 761 mmHg 75%
    08:00 +27°C° 0 mm 3 m/s 762 mmHg 73%
    09:00 +30°C° 0 mm 3 m/s 762 mmHg 62%
    10:00 +34°C° 0 mm 3 m/s 762 mmHg 52%
    11:00 +36°C° 0 mm 3 m/s 762 mmHg 41%
    12:00 +35°C° 0 mm 4 m/s 762 mmHg 44%
    13:00 +35°C° 0 mm 5 m/s 761 mmHg 46%
    14:00 +34°C° 0 mm 6 m/s 760 mmHg 49%
    15:00 +34°C° 0 mm 6 m/s 760 mmHg 49%
    16:00 +34°C° 0 mm 6 m/s 759 mmHg 50%
    17:00 +33°C° 0 mm 6 m/s 759 mmHg 51%
    18:00 +32°C° 0 mm 6 m/s 759 mmHg 57%
    19:00 +29°C° 0 mm 6 m/s 759 mmHg 63%
    20:00 +28°C° 0 mm 6 m/s 760 mmHg 70%
    21:00 +27°C° 0.1 mm 5 m/s 760 mmHg 73%
    22:00 +27°C° 0.1 mm 5 m/s 760 mmHg 75%
    23:00 +26°C° 0.1 mm 5 m/s 761 mmHg 78%

    Mâine, 24 Ianuarie, Joi

    Timp Temperatura Precipitaţii Vânt Presiune Umiditate
    00:00 +26°C° 0 mm 4 m/s 761 mmHg 80%
    01:00 +25°C° 0 mm 4 m/s 760 mmHg 82%
    02:00 +25°C° 0 mm 3 m/s 760 mmHg 84%
    03:00 +25°C° 0 mm 3 m/s 760 mmHg 85%
    04:00 +24°C° 0 mm 2 m/s 760 mmHg 86%
    05:00 +24°C° 0 mm 2 m/s 760 mmHg 87%
    06:00 +25°C° 0 mm 2 m/s 760 mmHg 80%
    07:00 +26°C° 0 mm 1 m/s 761 mmHg 74%
    08:00 +27°C° 0 mm 1 m/s 761 mmHg 67%
    09:00 +31°C° 0 mm 1 m/s 761 mmHg 56%
    10:00 +35°C° 0 mm 2 m/s 761 mmHg 45%
    11:00 +39°C° 0 mm 2 m/s 762 mmHg 34%
    12:00 +38°C° 0 mm 3 m/s 761 mmHg 36%
    13:00 +37°C° 0 mm 4 m/s 760 mmHg 39%
    14:00 +35°C° 0 mm 4 m/s 759 mmHg 41%
    15:00 +35°C° 0 mm 5 m/s 758 mmHg 43%
    16:00 +34°C° 0 mm 5 m/s 758 mmHg 45%
    17:00 +34°C° 0 mm 5 m/s 757 mmHg 47%
    18:00 +32°C° 0 mm 5 m/s 758 mmHg 53%
    19:00 +30°C° 0 mm 5 m/s 759 mmHg 59%
    20:00 +28°C° 0 mm 6 m/s 759 mmHg 66%
    21:00 +27°C° 0 mm 5 m/s 760 mmHg 66%
    22:00 +27°C° 0 mm 5 m/s 760 mmHg 67%
    23:00 +26°C° 0 mm 4 m/s 760 mmHg 68%

    Poimâine, 25 Ianuarie, Vineri

    Timp Temperatura Precipitaţii Vânt Presiune Umiditate
    00:00 +26°C° 0 mm 4 m/s 760 mmHg 70%
    01:00 +25°C° 0 mm 3 m/s 760 mmHg 73%
    02:00 +24°C° 0 mm 3 m/s 760 mmHg 76%
    03:00 +24°C° 0 mm 2 m/s 760 mmHg 78%
    04:00 +23°C° 0 mm 2 m/s 759 mmHg 79%
    05:00 +23°C° 0 mm 1 m/s 759 mmHg 81%
    06:00 +24°C° 0 mm 1 m/s 760 mmHg 75%
    07:00 +25°C° 0 mm 1 m/s 760 mmHg 69%
    08:00 +27°C° 0 mm 1 m/s 761 mmHg 63%
    09:00 +30°C° 0 mm 1 m/s 761 mmHg 52%
    10:00 +34°C° 0 mm 1 m/s 761 mmHg 41%
    11:00 +39°C° 0 mm 2 m/s 761 mmHg 30%
    12:00 +38°C° 0 mm 3 m/s 760 mmHg 32%
    13:00 +38°C° 0 mm 4 m/s 759 mmHg 33%
    14:00 +37°C° 0 mm 5 m/s 758 mmHg 34%
    15:00 +36°C° 0 mm 5 m/s 757 mmHg 39%
    16:00 +35°C° 0 mm 5 m/s 757 mmHg 43%
    17:00 +34°C° 0 mm 5 m/s 756 mmHg 47%
    18:00 +32°C° 0 mm 5 m/s 757 mmHg 53%
    19:00 +30°C° 0 mm 5 m/s 757 mmHg 60%
    20:00 +28°C° 0 mm 6 m/s 758 mmHg 66%
    21:00 +28°C° 0 mm 5 m/s 758 mmHg 67%
    22:00 +27°C° 0 mm 4 m/s 759 mmHg 69%
    23:00 +26°C° 0 mm 4 m/s 759 mmHg 70%

    26 Ianuarie, Sâmbătă

    Timp Temperatura Precipitaţii Vânt Presiune Umiditate
    00:00 +26°C° 0 mm 3 m/s 759 mmHg 71%
    01:00 +25°C° 0 mm 3 m/s 759 mmHg 71%
    02:00 +25°C° 0 mm 2 m/s 759 mmHg 71%
    03:00 +24°C° 0 mm 2 m/s 759 mmHg 74%
    04:00 +24°C° 0 mm 2 m/s 759 mmHg 77%
    05:00 +23°C° 0 mm 1 m/s 758 mmHg 80%
    06:00 +24°C° 0 mm 1 m/s 759 mmHg 73%
    07:00 +26°C° 0 mm 1 m/s 760 mmHg 66%
    08:00 +27°C° 0 mm 1 m/s 760 mmHg 59%
    09:00 +31°C° 0 mm 1 m/s 760 mmHg 48%
    10:00 +35°C° 0 mm 2 m/s 761 mmHg 37%
    11:00 +39°C° 0 mm 2 m/s 761 mmHg 26%
    12:00 +39°C° 0 mm 3 m/s 760 mmHg 28%
    13:00 +38°C° 0 mm 4 m/s 759 mmHg 30%
    14:00 +39°C° 0 mm 5 m/s 757 mmHg 32%
    15:00 +37°C° 0 mm 5 m/s 757 mmHg 38%
    16:00 +35°C° 0 mm 5 m/s 757 mmHg 45%
    17:00 +34°C° 0 mm 6 m/s 756 mmHg 51%
    18:00 +32°C° 0 mm 6 m/s 757 mmHg 58%
    19:00 +29°C° 0 mm 6 m/s 757 mmHg 65%
    20:00 +28°C° 0 mm 6 m/s 758 mmHg 72%
    21:00 +27°C° 0 mm 5 m/s 758 mmHg 73%
    22:00 +27°C° 0 mm 5 m/s 758 mmHg 74%
    23:00 +27°C° 0 mm 4 m/s 759 mmHg 75%

    27 Ianuarie, Duminică

    Timp Temperatura Precipitaţii Vânt Presiune Umiditate
    00:00 +26°C° 0 mm 4 m/s 758 mmHg 75%
    01:00 +26°C° 0 mm 3 m/s 758 mmHg 76%
    02:00 +26°C° 0 mm 3 m/s 758 mmHg 76%
    03:00 +25°C° 0 mm 2 m/s 758 mmHg 77%
    04:00 +25°C° 0 mm 2 m/s 758 mmHg 77%
    05:00 +24°C° 0 mm 2 m/s 758 mmHg 78%
    06:00 +25°C° 0 mm 2 m/s 758 mmHg 72%
    07:00 +26°C° 0 mm 2 m/s 759 mmHg 66%
    08:00 +28°C° 0 mm 2 m/s 759 mmHg 61%
    09:00 +31°C° 0 mm 2 m/s 760 mmHg 50%
    10:00 +35°C° 0 mm 2 m/s 760 mmHg 40%
    11:00 +39°C° 0 mm 2 m/s 760 mmHg 30%
    12:00 +39°C° 0 mm 2 m/s 759 mmHg 29%
    13:00 +39°C° 0 mm 3 m/s 758 mmHg 29%
    14:00 +41°C° 0 mm 4 m/s 757 mmHg 29%
    15:00 +38°C° 0 mm 4 m/s 757 mmHg 34%
    16:00 +36°C° 0 mm 4 m/s 756 mmHg 39%
    17:00 +34°C° 0 mm 5 m/s 756 mmHg 44%
    18:00 +32°C° 0 mm 5 m/s 756 mmHg 51%
    19:00 +30°C° 0 mm 5 m/s 757 mmHg 59%
    20:00 +28°C° 0 mm 5 m/s 757 mmHg 66%
    21:00 +28°C° 0 mm 5 m/s 758 mmHg 69%
    22:00 +27°C° 0 mm 5 m/s 758 mmHg 71%
    23:00 +27°C° 0 mm 5 m/s 759 mmHg 74%

    28 Ianuarie, Luni

    Timp Temperatura Precipitaţii Vânt Presiune Umiditate
    00:00 +27°C° 0 mm 4 m/s 758 mmHg 73%
    01:00 +26°C° 0 mm 4 m/s 758 mmHg 72%
    02:00 +26°C° 0 mm 3 m/s 758 mmHg 72%
    03:00 +26°C° 0 mm 3 m/s 758 mmHg 73%
    04:00 +25°C° 0 mm 2 m/s 758 mmHg 75%
    05:00 +25°C° 0 mm 2 m/s 758 mmHg 76%
    06:00 +26°C° 0 mm 2 m/s 758 mmHg 70%
    07:00 +27°C° 0 mm 1 m/s 759 mmHg 64%
    08:00 +28°C° 0 mm 1 m/s 759 mmHg 58%
    09:00 +32°C° 0 mm 1 m/s 759 mmHg 48%
    10:00 +36°C° 0 mm 2 m/s 759 mmHg 38%
    11:00 +40°C° 0 mm 2 m/s 759 mmHg 28%
    12:00 +40°C° 0 mm 3 m/s 759 mmHg 29%
    13:00 +40°C° 0 mm 3 m/s 758 mmHg 30%
    14:00 +41°C° 0 mm 4 m/s 757 mmHg 31%
    15:00 +38°C° 0 mm 4 m/s 756 mmHg 35%
    16:00 +37°C° 0 mm 4 m/s 756 mmHg 39%
    17:00 +35°C° 0 mm 5 m/s 755 mmHg 43%
    18:00 +33°C° 0 mm 5 m/s 756 mmHg 51%
    19:00 +30°C° 0 mm 4 m/s 756 mmHg 59%
    20:00 +29°C° 0 mm 4 m/s 757 mmHg 67%
    21:00 +28°C° 0 mm 4 m/s 757 mmHg 70%
    22:00 +28°C° 0 mm 4 m/s 758 mmHg 73%
    23:00 +27°C° 0 mm 4 m/s 758 mmHg 75%
    Arată mai mult